Regional Weather Roundup
Issued by NWS

Home | Current Version | Previous Version | Text Only | Print | Product List | Glossary Off
Versions: 1 2 3 4 5 6 7 8 9 10 11 12 13 14 15 16 17 18 19 20 21 22 23 24 25 26 27 28 29 30 31 32 33 34 35 36 37 38 39 40 41 42 43 44 45 46 47 48 49 50

000
ASUS43 KDTX 300401
RWRMI
MICHIGAN HOURLY REGIONAL WEATHER ROUNDUP
NATIONAL WEATHER SERVICE DETROIT/PONTIAC MI
1200 AM EDT FRI SEP 30 2016

NOTE: "FAIR" INDICATES FEW OR NO CLOUDS BELOW 12,000 FEET WITH NO
SIGNIFICANT WEATHER AND/OR OBSTRUCTION TO VISIBILITY.

MIZ047>049-052>055-059>063-066>070-074>076-081>083-300500-
SOUTHEAST LOWER MICHIGAN

CITY           SKY/WX    TMP DP  RH WIND       PRES   REMARKS
ADRIAN         CLOUDY    60  60 100 NE15G22   30.15F
ALMA           CLOUDY    60  58  94 NE15G25   30.28R
ANN ARBOR      CLOUDY    59  59 100 NE10G20   30.17F
BAD AXE        CLOUDY    57  56  95 E9        30.30F
CARO           CLOUDY    58  57  97 E8        30.26F FOG
DETROIT CITY   CLOUDY    60  59  96 E13       30.20F
DETROIT        CLOUDY    60  59  96 NE13G23   30.18F
FLINT          LGT RAIN  59  58  96 E12       30.25R FOG
GROSSE ILE     CLOUDY    61  59  94 NE13      30.16F
HILLSDALE      CLOUDY    59  55  88 NE13G21   30.15F
HOWELL         DRIZZLE   58  58  97 NE7       30.21F

CITY           SKY/WX    TMP DP  RH WIND       PRES   REMARKS
JACKSON        CLOUDY    59  59 100 NE10      30.18F
LAMBERTVILLE   CLOUDY    63  61  93 E6        30.14S
LANSING        LGT RAIN  58  56  93 NE10      30.24R FOG
LAPEER         NOT AVBL
MASON          CLOUDY    58  57  97 NE6       30.22S FOG
MONROE         CLOUDY    61  61  99 NE9       30.14F
MT. CLEMENS    CLOUDY    60  58  93 E17       30.20F
PONTIAC        CLOUDY    58  56  93 E14G20    30.22S
PORT HURON     CLOUDY    59  57  94 E10G21    30.25S
TRI CITIES     CLOUDY    60  57  89 E20       30.29R
MIDLAND        CLOUDY    59  57  94 E10       30.29R
TROY           CLOUDY    60  57  89 NE12      30.23F
SAGINAW HB     RAIN      59  55  88 NE12      30.26S
$$
MIZ043>046-050>051-056>058-064>065-071>073-077>080-300500-
SOUTHWEST LOWER MICHIGAN

CITY           SKY/WX    TMP DP  RH WIND       PRES   REMARKS
BATTLE CREEK   LGT RAIN  59  58  96 NE9       30.19S FOG
BENTON HARBOR  CLOUDY    60  56  86 VRB5      30.20R
BIG RAPIDS     CLOUDY    59  57  94 E9        30.28R
COLDWATER      CLOUDY    59  59 100 NE12      30.16S
FREMONT        CLOUDY    58  56  94 NE12      30.26R
HOLLAND        CLOUDY    60  56  86 NE9       30.22F
GRAND RAPIDS   LGT RAIN  59  55  87 NE15      30.24R
IONIA          CLOUDY    58  55  91 NE14G21   30.23S
KALAMAZOO      LGT RAIN  59  56  89 N9        30.19S FOG
LUDINGTON      CLOUDY    60  54  80 NE8       30.28F
MARSHALL       CLOUDY    59  58  97 NE8       30.18F
MOUNT PLEASANT DRIZZLE   59  58  96 NE7       30.28R
MUSKEGON       CLOUDY    60  57  89 NE9       30.26R
SOUTH HAVEN    CLOUDY    60  58  93 NE6       30.20S
$$
MIZ016>042-300500-
NORTHERN LOWER MICHIGAN

CITY           SKY/WX    TMP DP  RH WIND       PRES   REMARKS
ALPENA         CLOUDY    62  54  74 E12       30.37S
BEAVER ISLAND  CLEAR     59  55  85 E6        30.39F
BELLAIRE       MOCLDY    62  53  72 NE6       30.34F
CADILLAC       CLOUDY    57  54  88 NE9G18    30.31R
CHARLEVOIX     CLOUDY    61  53  76 E6        30.39F
FRANKFORT      PTCLDY    62  53  73 NE7       30.31F
GAYLORD        CLOUDY    60  51  72 NE10      30.36S
GRAYLING       CLOUDY    58  55  89 NE9       30.34F
HARBOR SPRINGS CLOUDY    61  53  76 NE8       30.37S
HOUGHTON LAKE  CLOUDY    56  55  97 NE14      30.33F FOG
MANISTEE       CLOUDY    61  53  75 NE8       30.29F
OSCODA         CLOUDY    62  53  73 E15G24    30.34R
PELLSTON       CLOUDY    54  51  90 CALM      30.39S
ROGERS CITY    CLOUDY    63  55  74 E14G22    30.39S
TRAVERSE CITY  CLOUDY    63  53  70 E12       30.32F
$$
MIZ007>008-015-300500-
EASTERN UPPER MICHIGAN

CITY           SKY/WX    TMP DP  RH WIND       PRES   REMARKS
KINROSS        CLEAR     56  51  84 NE8       30.42S
MACKINAC ISLAN CLEAR     60  53  77 NE9       30.39F
NEWBERRY       CLEAR     53  52  95 NE5       30.41F
S. S. MARIE    CLEAR     57  49  74 CALM      30.42S
MUNISING         N/A     60  58  92 NW8       30.42F
$$
MIZ004>006-011>014-085-300500-
CENTRAL UPPER MICHIGAN

CITY           SKY/WX    TMP DP  RH WIND       PRES   REMARKS
MANISTIQUE     CLEAR     51  49  92 N3        30.40F
ESCANABA       MOCLDY    56  55  97 N8        30.41F
MENOMINEE      CLEAR     56  53  90 N9        30.39S
SAWYER-GWINN   CLEAR     53  52  97 NE9       30.45S
$$
MIZ001>003-009>011-084-300500-
WESTERN UPPER MICHIGAN

CITY           SKY/WX    TMP DP  RH WIND       PRES   REMARKS
IRON MOUNTAIN  CLEAR     52  48  86 W7        30.42S
HOUGHTON       CLEAR     43  41  93 N6        30.46F
COPPER HARBOR    N/A     51  50  96 CALM      30.47S
IRONWOOD       CLOUDY    53  51  93 E6        30.46F
$$

ABBREVIATIONS USED IN REMARKS
   TC - TEMPERATURE IN CELSIUS
  WCI - WIND CHILL INDEX
   HX - HEAT INDEX
  VSB - VISIBILITY





USA.gov is the U.S. government's official web portal to all federal, state and local government web resources and services.